Change the Weather History Date:

Friday, February 8, 2013

  Actual Average Record
Temperature  
Mean Temperature 36 °F -  
Max Temperature 41 °F 37 °F 66 °F (1990)
Min Temperature 32 °F 19 °F -4 °F (1985)
Degree Days  
Heating Degree Days 28    
Moisture  
Dew Point 31 °F    
Average Humidity 84    
Maximum Humidity 93    
Minimum Humidity 78    
Precipitation  
Precipitation 0.00 in - - ()
Sea Level Pressure  
Sea Level Pressure 30.26 in    
Wind  
Wind Speed 15 mph (North)    
Max Wind Speed 23 mph    
Max Gust Speed 29 mph    
Visibility 10 miles    
Events      
Averages and records for this station are not official NWS values.
T = Trace of Precipitation, MM = Missing Value Source: NWS Daily Summary

Daily Weather History Graph

Daily Weather History Graph

Search for Another Location

Airport or City:

Trip Planner

Search our weather history database for the weather conditions in past years. The results will help you decide how hot, cold, wet, or windy it might be!

Date:

Astronomy

Feb. 08, 2013 Rise Set
Actual Time 6:54 AM CST 5:26 PM CST
Civil Twilight 6:26 AM CST 5:53 PM CST
Nautical Twilight 5:55 AM CST 6:25 PM CST
Astronomical Twilight 5:24 AM CST 6:56 PM CST
Moon 5:22 AM CST (2/8) 3:59 PM CST (2/8)
Length of Visible Light 11h 26m
Length of Day
10h 31m
Waning Crescent, 3% of the Moon is Illuminated
Feb 8
Waning Crescent
Feb 10
New
Feb 17
First Quarter
Feb 25
Full
Mar 4
Last Quarter

Hourly Weather History & Observations

Time (CST) Temp. Windchill Dew Point Humidity Pressure Visibility Wind Dir Wind Speed Gust Speed Precip Events Conditions
12:15 AM 41.2 °F 32.1 °F 39.4 °F 93% 30.00 in 10.0 mi NNW 19.6 mph 27.6 mph N/A   Overcast
12:35 AM 41.2 °F 32.7 °F 39.2 °F 93% 30.01 in 10.0 mi NNW 17.3 mph 25.3 mph N/A   Overcast
12:55 AM 41.0 °F 32.2 °F 38.7 °F 91% 30.01 in 10.0 mi NNW 18.4 mph 25.3 mph N/A   Overcast
1:15 AM 40.3 °F 30.4 °F 38.3 °F 93% 30.02 in 10.0 mi NNW 21.9 mph 27.6 mph N/A   Overcast
1:35 AM 40.1 °F 30.7 °F 38.3 °F 93% 30.03 in 10.0 mi NNW 19.6 mph 26.5 mph N/A   Overcast
1:55 AM 39.7 °F 29.5 °F 37.6 °F 92% 30.04 in 10.0 mi NNW 23.0 mph 28.8 mph N/A   Overcast
2:15 AM 39.2 °F 29.6 °F 37.4 °F 93% 30.05 in 10.0 mi NNW 19.6 mph 27.6 mph N/A   Overcast
2:35 AM 39.2 °F 29.0 °F 36.7 °F 91% 30.05 in 10.0 mi NNW 21.9 mph 27.6 mph N/A   Overcast
2:55 AM 39.2 °F 29.8 °F 36.5 °F 90% 30.05 in 10.0 mi NNW 18.4 mph 27.6 mph N/A   Overcast
3:15 AM 39.2 °F 29.6 °F 36.3 °F 89% 30.06 in 10.0 mi NNW 19.6 mph 24.2 mph N/A   Overcast
3:55 AM 38.3 °F 28.7 °F 35.6 °F 90% 30.08 in 10.0 mi NNW 18.4 mph 25.3 mph N/A   Overcast
4:15 AM 38.3 °F 27.6 °F 34.9 °F 87% 30.09 in 10.0 mi NNW 23.0 mph 27.6 mph N/A   Overcast
4:35 AM 38.1 °F 28.4 °F 34.7 °F 87% 30.10 in 7.0 mi NNW 18.4 mph 28.8 mph N/A   Overcast
4:55 AM 37.8 °F 28.3 °F 35.6 °F 92% 30.11 in 5.0 mi NW 17.3 mph 23.0 mph N/A   Overcast
5:15 AM 37.4 °F 29.3 °F 35.1 °F 91% 30.13 in 4.0 mi NNW 12.7 mph 24.2 mph N/A   Overcast
5:35 AM 37.4 °F 27.8 °F 34.5 °F 89% 30.13 in 5.0 mi NNW 17.3 mph 21.9 mph N/A   Overcast
5:55 AM 37.4 °F 27.8 °F 34.3 °F 89% 30.14 in 5.0 mi NW 17.3 mph 21.9 mph N/A   Overcast
6:15 AM 36.9 °F 26.5 °F 33.3 °F 87% 30.15 in 5.0 mi NNW 19.6 mph 28.8 mph N/A   Overcast
6:35 AM 36.7 °F 27.6 °F 33.4 °F 88% 30.17 in 5.0 mi NNW 15.0 mph 19.6 mph N/A   Overcast
6:55 AM 36.5 °F 27.8 °F 32.7 °F 86% 30.18 in 7.0 mi NNW 13.8 mph 19.6 mph N/A   Overcast
7:15 AM 35.6 °F 25.5 °F 32.0 °F 87% 30.19 in 10.0 mi NNW 17.3 mph 23.0 mph N/A   Overcast
7:35 AM 35.6 °F 24.8 °F 31.6 °F 85% 30.21 in 10.0 mi North 19.6 mph 26.5 mph N/A   Overcast
7:55 AM 35.6 °F 26.6 °F 32.0 °F 87% 30.22 in 10.0 mi NNW 13.8 mph 20.7 mph N/A   Overcast
8:15 AM 35.4 °F 24.0 °F 32.0 °F 87% 30.23 in 10.0 mi NNW 21.9 mph 26.5 mph N/A   Overcast
8:35 AM 35.2 °F 25.4 °F 31.3 °F 85% 30.24 in 10.0 mi North 16.1 mph - N/A   Overcast
8:55 AM 35.6 °F 26.2 °F 31.5 °F 85% 30.25 in 10.0 mi NNW 15.0 mph 23.0 mph N/A   Overcast
9:15 AM 35.6 °F 25.2 °F 31.3 °F 84% 30.26 in 10.0 mi NNW 18.4 mph 21.9 mph N/A   Overcast
9:35 AM 35.2 °F 25.8 °F 30.9 °F 84% 30.27 in 10.0 mi NNW 15.0 mph 23.0 mph N/A   Overcast
9:55 AM 35.6 °F 26.2 °F 31.3 °F 84% 30.28 in 10.0 mi NW 15.0 mph 21.9 mph N/A   Overcast
10:15 AM 35.8 °F 26.1 °F 31.6 °F 85% 30.29 in 10.0 mi NNW 16.1 mph - N/A   Overcast
10:35 AM 35.2 °F 26.6 °F 30.9 °F 84% 30.30 in 10.0 mi NNW 12.7 mph - N/A   Overcast
10:55 AM 35.1 °F 25.9 °F 30.9 °F 85% 30.30 in 10.0 mi NNW 13.8 mph - N/A   Overcast
11:15 AM 35.1 °F 25.2 °F 31.3 °F 86% 30.30 in 10.0 mi NNW 16.1 mph - N/A   Overcast
11:35 AM 35.6 °F 25.9 °F 30.9 °F 83% 30.31 in 10.0 mi NNW 16.1 mph - N/A   Overcast
11:55 AM 36.0 °F 27.1 °F 30.9 °F 82% 30.31 in 10.0 mi North 13.8 mph - N/A   Overcast
12:15 PM 36.0 °F 27.5 °F 31.1 °F 82% 30.31 in 10.0 mi North 12.7 mph - N/A   Overcast
12:35 PM 36.1 °F 28.2 °F 31.5 °F 83% 30.31 in 10.0 mi North 11.5 mph - N/A   Overcast
12:55 PM 35.6 °F 25.9 °F 30.2 °F 81% 30.32 in 10.0 mi North 16.1 mph - N/A   Overcast
1:15 PM 35.1 °F 25.9 °F 29.8 °F 81% 30.32 in 10.0 mi North 13.8 mph - N/A   Overcast
1:35 PM 34.5 °F 25.3 °F 29.8 °F 83% 30.31 in 10.0 mi North 13.8 mph 17.3 mph N/A   Overcast
1:55 PM 34.2 °F 25.2 °F 29.7 °F 84% 30.31 in 10.0 mi North 12.7 mph - N/A   Overcast
2:15 PM 34.2 °F 25.7 °F 29.7 °F 84% 30.32 in 10.0 mi North 11.5 mph - N/A   Overcast
2:35 PM 33.8 °F 25.3 °F 29.8 °F 85% 30.32 in 10.0 mi NNW 11.5 mph - N/A   Overcast
2:55 PM 34.3 °F 27.0 °F 30.2 °F 85% 30.32 in 10.0 mi NNW 9.2 mph - N/A   Overcast
3:15 PM 34.2 °F 26.8 °F 29.8 °F 84% 30.33 in 10.0 mi North 9.2 mph - N/A   Overcast
3:35 PM 34.9 °F 27.7 °F 30.2 °F 83% 30.34 in 10.0 mi North 9.2 mph - N/A   Overcast
3:55 PM 34.7 °F 27.5 °F 29.8 °F 82% 30.34 in 10.0 mi North 9.2 mph - N/A   Overcast
4:15 PM 34.7 °F 27.5 °F 29.3 °F 81% 30.34 in 10.0 mi North 9.2 mph - N/A   Overcast
4:35 PM 34.7 °F 28.8 °F 29.1 °F 80% 30.35 in 10.0 mi North 6.9 mph - N/A   Overcast
4:55 PM 34.7 °F 28.8 °F 29.3 °F 81% 30.35 in 10.0 mi NNE 6.9 mph - N/A   Overcast
5:15 PM 34.3 °F 26.5 °F 29.1 °F 81% 30.36 in 10.0 mi North 10.4 mph - N/A   Overcast
5:35 PM 33.8 °F 25.8 °F 28.6 °F 81% 30.38 in 10.0 mi North 10.4 mph - N/A   Overcast
5:55 PM 33.8 °F 29.6 °F 28.4 °F 81% 30.39 in 10.0 mi North 4.6 mph - N/A   Overcast
6:15 PM 33.8 °F 28.6 °F 29.1 °F 83% 30.37 in 10.0 mi NNE 5.8 mph - N/A   Overcast
6:35 PM 33.8 °F 28.6 °F 27.5 °F 78% 30.36 in 10.0 mi NE 5.8 mph - N/A   Overcast
6:55 PM 33.6 °F 26.2 °F 28.2 °F 81% 30.36 in 10.0 mi North 9.2 mph - N/A   Overcast
7:15 PM 33.6 °F 26.8 °F 28.4 °F 81% 30.36 in 10.0 mi NNE 8.1 mph - N/A   Overcast
7:35 PM 33.4 °F 29.1 °F 28.2 °F 81% 30.36 in 10.0 mi NE 4.6 mph - N/A   Overcast
7:55 PM 33.4 °F 26.6 °F 28.4 °F 82% 30.36 in 10.0 mi NE 8.1 mph - N/A   Overcast
8:15 PM 33.6 °F 27.5 °F 28.2 °F 81% 30.37 in 10.0 mi NE 6.9 mph - N/A   Overcast
8:35 PM 33.8 °F 28.6 °F 28.4 °F 81% 30.37 in 10.0 mi NNE 5.8 mph - N/A   Overcast
8:55 PM 33.8 °F 29.6 °F 28.4 °F 81% 30.37 in 10.0 mi ENE 4.6 mph - N/A   Overcast
9:15 PM 33.8 °F 28.6 °F 27.9 °F 79% 30.38 in 10.0 mi NE 5.8 mph - N/A   Overcast
9:35 PM 33.6 °F 29.4 °F 27.5 °F 78% 30.38 in 10.0 mi ENE 4.6 mph - N/A   Overcast
9:55 PM 33.4 °F 30.4 °F 27.9 °F 80% 30.38 in 10.0 mi East 3.5 mph - N/A   Overcast
10:15 PM 33.3 °F - 27.3 °F 79% 30.38 in 10.0 mi Calm Calm - N/A   Overcast
10:35 PM 33.1 °F 26.1 °F 27.3 °F 79% 30.38 in 10.0 mi ENE 8.1 mph - N/A   Overcast
10:55 PM 32.9 °F 26.7 °F 27.1 °F 79% 30.38 in 10.0 mi ENE 6.9 mph - N/A   Overcast
11:15 PM 33.1 °F 27.7 °F 27.5 °F 80% 30.37 in 10.0 mi ENE 5.8 mph - N/A   Overcast
11:35 PM 32.9 °F 28.5 °F 26.6 °F 78% 30.37 in 10.0 mi East 4.6 mph - N/A   Overcast
11:55 PM 32.9 °F 28.5 °F 26.6 °F 78% 30.37 in 10.0 mi ENE 4.6 mph - N/A   Overcast